weather.gov     
National Weather Service

Terminal Aerodrome Forecast
NWS Homepage
This page is being discontinued on March 12, 2014.
The same data is available at this site. Please update your bookmarks.
Thank you, and we apologize for the inconvenience.
Please send an email to SR-SRH.Webmaster@noaa.gov with any concerns.


Current Version
Previous Version:    01  02  03  04  05  06  07  08  09  10  11  12  13  14  15  16  17  18  19  20  21  22  23  24  25  26  27  
[Printable]
998
FTUS42 TJSJ 220500 RRA
TAFJPS
TAF
TJPS 220550Z 2206/2306 05010KT P6SM VCSH SCT020 BKN050
     FM221300 08012KT P6SM VCTS SCT030CB OVC050
      TEMPO 2213/2216 VRB10G20KT 4SM TSRA BKN025CB
     FM221600 14012KT P6SM VCTS SCT015CB BKN035 OVC060
      AMD NOT SKED 2211/2303=


U.S. Dept. of Commerce
NOAA National Weather Service
1325 East West Highway
Silver Spring, MD 20910
E-mail: w-nws.webmaster@noaa.gov
Page last modified: May 16, 2007
NATIONAL WEATHER SERVICE: for Safety, for Work, for Fun - FOR LIFE